Fairmont, MN

4:57 AM CDT on August 28, 2016 (GMT -0500)
Fairmont Municipal

Weather History for KFRM - September, 2012

Change the Weather History Date:

Tuesday, September 11, 2012

  Actual Average Record
Temperature  
Mean Temperature 78 °F -  
Max Temperature 93 °F 76 °F 93 °F (1978)
Min Temperature 62 °F 53 °F 38 °F (1955)
Cooling Degree Days 12    
Growing Degree Days 28 (Base 50)    
Moisture  
Dew Point 47 °F    
Average Humidity 37    
Maximum Humidity 59    
Minimum Humidity 19    
Precipitation  
Precipitation 0.04 in - - ()
Sea Level Pressure  
Sea Level Pressure 29.82 in    
Wind  
Wind Speed 18 mph (South)    
Max Wind Speed 30 mph    
Max Gust Speed 39 mph    
Visibility 10 miles    
Events      
Averages and records for this station are not official NWS values.
T = Trace of Precipitation, MM = Missing Value Source: NWS Daily Summary

Daily Weather History Graph

Daily Weather History Graph

Search for Another Location

Airport or City:

Trip Planner

Search our weather history database for the weather conditions in past years. The results will help you decide how hot, cold, wet, or windy it might be!

Date:

Astronomy

Sep. 11, 2012 Rise Set
Actual Time 6:53 AM CDT 7:34 PM CDT
Civil Twilight 6:24 AM CDT 8:03 PM CDT
Nautical Twilight 5:49 AM CDT 8:37 PM CDT
Astronomical Twilight 5:14 AM CDT 9:12 PM CDT
Moon 2:04 AM CDT (9/11) 4:51 PM CDT (9/11)
Length of Visible Light 13h 39m
Length of Day
12h 41m
Waning Crescent, 21% of the Moon is Illuminated
Sep 11
Waning Crescent
Sep 15
New
Sep 22
First Quarter
Sep 29
Full
Oct 8
Last Quarter

Hourly Weather History & Observations

Time (CDT) Temp. Dew Point Humidity Pressure Visibility Wind Dir Wind Speed Gust Speed Precip Events Conditions
12:15 AM 68.0 °F 48.2 °F 49% 29.86 in 10.0 mi South 17.3 mph - N/A   Clear
12:35 AM 68.0 °F 48.2 °F 49% 29.85 in 10.0 mi South 15.0 mph 25.3 mph N/A   Clear
12:55 AM 68.0 °F 48.2 °F 49% 29.85 in 10.0 mi South 19.6 mph 23.0 mph N/A   Clear
1:15 AM 68.0 °F 48.2 °F 49% 29.85 in 10.0 mi South 16.1 mph 23.0 mph N/A   Clear
1:35 AM 66.2 °F 48.2 °F 52% 29.85 in 10.0 mi South 17.3 mph 23.0 mph N/A   Clear
1:55 AM 66.2 °F 48.2 °F 52% 29.85 in 10.0 mi South 16.1 mph 21.9 mph N/A   Clear
2:15 AM 66.2 °F 48.2 °F 52% 29.85 in 10.0 mi South 16.1 mph 20.7 mph N/A   Clear
2:35 AM 66.2 °F 48.2 °F 52% 29.84 in 10.0 mi South 15.0 mph 21.9 mph N/A   Clear
2:55 AM 64.4 °F 48.2 °F 56% 29.84 in 10.0 mi South 13.8 mph 21.9 mph N/A   Clear
3:15 AM 64.4 °F 48.2 °F 56% 29.84 in 10.0 mi South 13.8 mph 23.0 mph N/A   Clear
3:35 AM 64.4 °F 48.2 °F 56% 29.84 in 10.0 mi South 15.0 mph - N/A   Clear
3:55 AM 64.4 °F 48.2 °F 56% 29.84 in 10.0 mi South 15.0 mph 20.7 mph N/A   Clear
4:15 AM 64.4 °F 48.2 °F 56% 29.84 in 10.0 mi South 12.7 mph - N/A   Clear
4:35 AM 64.4 °F 48.2 °F 56% 29.84 in 10.0 mi South 13.8 mph - N/A   Clear
4:55 AM 62.6 °F 48.2 °F 59% 29.84 in 10.0 mi South 15.0 mph 20.7 mph N/A   Clear
5:15 AM 62.6 °F 48.2 °F 59% 29.84 in 10.0 mi South 16.1 mph 19.6 mph N/A   Clear
5:35 AM 62.6 °F 48.2 °F 59% 29.84 in 10.0 mi South 15.0 mph 18.4 mph N/A   Clear
5:55 AM 62.6 °F 48.2 °F 59% 29.83 in 10.0 mi South 16.1 mph - N/A   Clear
6:15 AM 62.6 °F 48.2 °F 59% 29.83 in 10.0 mi South 13.8 mph - N/A   Clear
6:35 AM 62.6 °F 48.2 °F 59% 29.83 in 10.0 mi South 13.8 mph 20.7 mph N/A   Clear
6:55 AM 62.6 °F 48.2 °F 59% 29.83 in 10.0 mi South 16.1 mph 24.2 mph N/A   Clear
7:15 AM 62.6 °F 48.2 °F 59% 29.83 in 10.0 mi South 15.0 mph 23.0 mph N/A   Clear
7:35 AM 62.6 °F 48.2 °F 59% 29.84 in 10.0 mi South 16.1 mph 21.9 mph N/A   Clear
7:55 AM 64.4 °F 48.2 °F 56% 29.83 in 10.0 mi South 21.9 mph 25.3 mph N/A   Clear
8:15 AM 64.4 °F 48.2 °F 56% 29.83 in 10.0 mi South 17.3 mph 26.5 mph N/A   Clear
8:35 AM 66.2 °F 48.2 °F 52% 29.83 in 10.0 mi SSW 19.6 mph 28.8 mph N/A   Clear
8:55 AM 68.0 °F 48.2 °F 49% 29.82 in 10.0 mi South 23.0 mph 28.8 mph N/A   Clear
9:15 AM 69.8 °F 48.2 °F 46% 29.82 in 10.0 mi South 20.7 mph 28.8 mph N/A   Clear
9:35 AM 73.4 °F 48.2 °F 41% 29.83 in 10.0 mi South 20.7 mph 27.6 mph N/A   Clear
9:55 AM 75.2 °F 46.4 °F 36% 29.83 in 10.0 mi SSW 18.4 mph 29.9 mph N/A   Clear
10:15 AM 78.8 °F 46.4 °F 32% 29.83 in 10.0 mi SSW 19.6 mph 27.6 mph N/A   Clear
10:35 AM 80.6 °F 46.4 °F 30% 29.83 in 10.0 mi SSW 17.3 mph 27.6 mph N/A   Clear
10:55 AM 82.4 °F 46.4 °F 28% 29.82 in 10.0 mi SSW 18.4 mph 31.1 mph N/A   Clear
11:15 AM 84.2 °F 44.6 °F 25% 29.82 in 10.0 mi South 26.5 mph 32.2 mph 0.04 in   Clear
11:35 AM 86.0 °F 44.6 °F 23% 29.82 in 10.0 mi SSW 21.9 mph 33.4 mph 0.04 in   Clear
11:55 AM 87.8 °F 44.6 °F 22% 29.82 in 10.0 mi SSW 29.9 mph 34.5 mph 0.04 in   Clear
12:15 PM 89.6 °F 44.6 °F 21% 29.81 in 10.0 mi SSW 27.6 mph 38.0 mph N/A   Clear
12:35 PM 89.6 °F 42.8 °F 20% 29.81 in 10.0 mi SSW 24.2 mph 35.7 mph N/A   Clear
12:55 PM 91.4 °F 44.6 °F 20% 29.81 in 10.0 mi South 24.2 mph 34.5 mph N/A   Clear
1:15 PM 91.4 °F 44.6 °F 20% 29.80 in 10.0 mi South 21.9 mph 35.7 mph N/A   Clear
1:35 PM 91.4 °F 44.6 °F 20% 29.80 in 10.0 mi South 24.2 mph 33.4 mph N/A   Clear
1:55 PM 91.4 °F 44.6 °F 20% 29.79 in 10.0 mi South 26.5 mph 35.7 mph N/A   Clear
2:15 PM 93.2 °F 44.6 °F 19% 29.79 in 10.0 mi SSW 26.5 mph 33.4 mph N/A   Clear
2:35 PM 93.2 °F 44.6 °F 19% 29.78 in 10.0 mi South 27.6 mph 39.1 mph N/A   Clear
2:55 PM 93.2 °F 46.4 °F 20% 29.78 in 10.0 mi South 23.0 mph 33.4 mph N/A   Clear
3:15 PM 93.2 °F 44.6 °F 19% 29.78 in 10.0 mi South 24.2 mph 35.7 mph N/A   Clear
3:35 PM 93.2 °F 44.6 °F 19% 29.77 in 10.0 mi SSW 27.6 mph 38.0 mph N/A   Clear
3:55 PM 93.2 °F 44.6 °F 19% 29.77 in 10.0 mi South 21.9 mph 35.7 mph N/A   Clear
4:15 PM 93.2 °F 44.6 °F 19% 29.77 in 10.0 mi South 24.2 mph 33.4 mph N/A   Clear
4:35 PM 93.2 °F 46.4 °F 20% 29.77 in 10.0 mi South 21.9 mph 33.4 mph N/A   Clear
4:55 PM 93.2 °F 46.4 °F 20% 29.77 in 10.0 mi South 26.5 mph 34.5 mph N/A   Clear
5:15 PM 91.4 °F 46.4 °F 21% 29.77 in 10.0 mi South 24.2 mph 35.7 mph N/A   Clear
5:35 PM 91.4 °F 46.4 °F 21% 29.77 in 10.0 mi South 23.0 mph 35.7 mph N/A   Clear
5:55 PM 91.4 °F 46.4 °F 21% 29.78 in 10.0 mi South 21.9 mph 36.8 mph N/A   Clear
6:15 PM 91.4 °F 46.4 °F 21% 29.79 in 10.0 mi SSW 20.7 mph 36.8 mph N/A   Clear
6:35 PM 89.6 °F 46.4 °F 22% 29.79 in 10.0 mi South 20.7 mph 32.2 mph N/A   Clear
6:55 PM 87.8 °F 46.4 °F 24% 29.80 in 10.0 mi South 17.3 mph 25.3 mph N/A   Clear
7:15 PM 87.8 °F 46.4 °F 24% 29.80 in 10.0 mi South 16.1 mph 29.9 mph N/A   Clear
7:35 PM 86.0 °F 48.2 °F 27% 29.80 in 10.0 mi South 20.7 mph 26.5 mph N/A   Clear
7:55 PM 84.2 °F 48.2 °F 29% 29.80 in 10.0 mi South 19.6 mph 24.2 mph N/A   Clear
8:15 PM 82.4 °F 48.2 °F 30% 29.81 in 10.0 mi South 17.3 mph 25.3 mph N/A   Clear
8:35 PM 82.4 °F 48.2 °F 30% 29.83 in 10.0 mi South 15.0 mph - N/A   Clear
8:55 PM 80.6 °F 48.2 °F 32% 29.83 in 10.0 mi South 16.1 mph 21.9 mph N/A   Clear
9:15 PM 80.6 °F 46.4 °F 30% 29.84 in 10.0 mi South 13.8 mph 21.9 mph N/A   Clear
9:35 PM 78.8 °F 46.4 °F 32% 29.85 in 10.0 mi South 13.8 mph 19.6 mph N/A   Clear
9:55 PM 78.8 °F 46.4 °F 32% 29.85 in 10.0 mi South 16.1 mph 21.9 mph N/A   Clear
10:15 PM 78.8 °F 46.4 °F 32% 29.86 in 10.0 mi South 15.0 mph 20.7 mph N/A   Clear
10:35 PM 78.8 °F 48.2 °F 34% 29.86 in 10.0 mi South 13.8 mph - N/A   Clear
10:55 PM 77.0 °F 48.2 °F 36% 29.87 in 10.0 mi South 12.7 mph 19.6 mph N/A   Clear
11:35 PM 77.0 °F 48.2 °F 36% 29.88 in 10.0 mi South 15.0 mph 20.7 mph N/A   Clear
11:55 PM 77.0 °F 48.2 °F 36% 29.88 in 10.0 mi South 15.0 mph 19.6 mph N/A   Clear